WR7DW-3 Weather Reports


time (UTC)temp
C
wind
direction
speed
KPH
gust
KPH
rain 1hr
cm
rain 24hr
cm
rain mn
cm
humidity
%
barometer
mb
20260508012933 7 301 0.0 0.0 0.00 0.51 0.33 77 1004.8
20260508011434 7 299 0.0 0.0 0.00 0.51 0.33 77 1004.6
20260508005932 8 289 0.0 0.0 0.00 0.51 0.33 74 1004.8
20260508004432 8 284 0.0 0.0 0.00 0.51 0.33 68 1004.8
20260508002932 8 285 0.0 0.0 0.00 0.51 0.33 75 1004.9
20260508001433 8 309 0.0 0.0 0.00 0.51 0.33 70 1004.9
20260507235933 8 288 0.0 0.0 0.00 0.51 0.33 71 1004.8
20260507234432 7 292 0.0 0.0 0.00 0.51 0.33 78 1004.8
20260507232933 6 293 0.0 0.0 0.00 0.51 0.33 83 1004.8
20260507231432 7 300 0.0 0.0 0.00 0.51 0.33 84 1004.7
20260507225933 7 296 0.0 0.0 0.00 0.51 0.33 84 1004.7
20260507224432 7 287 0.0 0.0 0.00 0.51 0.33 80 1004.8
20260507222933 7 288 0.0 0.0 0.00 0.51 0.33 79 1005.0
20260507221432 7 289 0.0 0.0 0.00 0.51 0.33 78 1005.1
20260507215933 7 280 0.0 0.0 0.00 0.51 0.33 81 1005.1
20260507214432 7 278 0.0 0.0 0.00 0.51 0.33 79 1005.1
20260507212933 7 277 0.0 0.0 0.00 0.51 0.33 81 1005.4
20260507211433 7 281 0.0 0.0 0.00 0.51 0.33 87 1005.6
20260507205933 7 266 0.0 0.0 0.00 0.51 0.33 88 1005.6
20260507204433 6 245 0.0 0.0 0.00 0.51 0.33 91 1005.7
20260507202933 6 277 0.0 0.0 0.00 0.51 0.33 92 1005.5
20260507201433 6 263 0.0 0.0 0.00 0.51 0.33 92 1005.5
20260507195933 6 268 0.0 0.0 0.00 0.51 0.33 91 1005.6
20260507194433 6 269 0.0 0.0 0.00 0.51 0.33 87 1005.5
20260507192933 6 261 0.0 0.0 0.00 0.51 0.33 89 1005.4
20260507191433 6 303 0.0 0.0 0.00 0.51 0.33 88 1005.3
20260507185933 6 258 0.0 0.0 0.00 0.51 0.33 91 1005.5
20260507184433 5 284 0.0 0.0 0.00 0.51 0.33 93 1005.6
20260507182933 6 309 0.0 0.0 0.00 0.51 0.33 90 1005.5
20260507181433 5 320 0.0 0.0 0.00 0.51 0.33 93 1005.8
20260507175934 5 305 0.0 0.0 0.00 0.51 0.33 95 1005.7
20260507174433 5 323 0.0 0.0 0.00 0.51 0.33 94 1005.7
20260507172933 4 320 0.0 0.0 0.00 0.51 0.33 96 1005.5
20260507171433 4 299 0.0 0.0 0.00 0.51 0.33 96 1005.6
20260507165933 4 314 0.0 0.0 0.00 0.51 0.33 96 1005.5
20260507161433 3 285 0.0 0.0 0.00 0.51 0.33 95 1005.9
20260507155933 3 301 0.0 0.0 0.00 0.51 0.33 95 1005.9
20260507154433 3 283 0.0 0.0 0.00 0.51 0.33 95 1005.7
20260507152933 3 300 0.0 0.0 0.00 0.51 0.33 95 1005.6
20260507151433 3 312 0.0 0.0 0.03 0.51 0.33 94 1005.4
20260507145935 3 302 0.0 0.0 0.03 0.51 0.33 94 1005.4
20260507144433 3 295 0.0 0.0 0.03 0.51 0.33 93 1005.4
20260507142933 3 289 0.0 0.0 0.13 0.51 0.33 92 1005.2
20260507141433 3 294 0.0 0.0 0.13 0.48 0.30 89 1005.4
20260507135933 3 289 0.0 0.0 0.13 0.48 0.30 90 1005.4
20260507134433 3 295 0.0 0.0 0.13 0.48 0.30 89 1005.6
20260507132933 3 293 0.0 0.0 0.03 0.38 0.20 88 1005.4
20260507131433 3 266 0.0 0.0 0.00 0.36 0.18 88 1005.0
20260507125933 3 273 0.0 0.0 0.00 0.36 0.18 86 1005.0
20260507124437 4 260 0.0 0.0 0.00 0.36 0.18 84 1005.0
20260507121435 4 271 0.0 0.0 0.00 0.36 0.18 82 1004.9
20260507115934 3 289 0.0 0.0 0.00 0.36 0.18 83 1004.8
20260507114434 3 285 0.0 0.0 0.00 0.36 0.18 83 1004.8
20260507112934 4 286 0.0 0.0 0.00 0.36 0.18 81 1004.7
20260507111434 5 293 0.0 0.0 0.00 0.36 0.18 78 1004.9
20260507105934 5 293 0.0 0.0 0.00 0.36 0.18 78 1005.0
20260507104436 5 289 0.0 0.0 0.00 0.36 0.18 78 1005.0
20260507102934 5 290 0.0 0.0 0.00 0.36 0.18 78 1004.8
20260507095934 5 291 0.0 0.0 0.00 0.36 0.18 77 1005.1
20260507094435 5 316 0.0 0.0 0.00 0.36 0.18 76 1005.1
20260507092934 5 332 0.0 0.0 0.00 0.36 0.18 76 1005.0
20260507091435 5 341 0.0 0.0 0.00 0.36 0.18 76 1004.9
20260507085934 5 349 0.0 0.0 0.03 0.36 0.18 77 1005.1
20260507084434 5 338 0.0 0.0 0.10 0.36 0.18 79 1005.3
20260507082934 3 243 0.0 0.0 0.13 0.36 0.18 83 1005.8
20260507081434 4 4 0.0 0.0 0.15 0.36 0.18 78 1005.5
20260507075934 3 311 0.0 0.0 0.13 0.33 0.15 86 1005.7
20260507074434 3 12 0.0 0.0 0.08 0.25 0.08 90 1006.6
20260507072934 4 37 0.0 0.0 0.05 0.23 0.05 86 1006.2
20260507071434 4 13 0.0 0.0 0.03 0.20 0.03 84 1006.1
20260507065935 4 307 0.0 0.0 0.03 0.20 0.03 86 1005.4
20260507064434 6 321 0.0 1.6 0.00 0.18 0.00 74 1005.2
20260507062934 6 306 0.0 0.0 0.00 0.18 0.18 74 1004.9
20260507061434 7 308 0.0 0.0 0.00 0.18 0.18 71 1005.4
20260507055934 7 343 0.0 0.0 0.00 0.18 0.18 71 1005.7
20260507054434 6 11 0.0 0.0 0.00 0.18 0.18 74 1006.0
20260507052934 5 34 0.0 0.0 0.00 0.18 0.18 77 1005.8
20260507045934 6 316 0.0 0.0 0.13 0.18 0.18 68 1005.6
20260507044434 5 324 0.0 0.0 0.18 0.18 0.18 86 1005.8
20260507042935 4 313 0.0 0.0 0.18 0.18 0.18 90 1005.9
20260507041434 3 287 0.0 0.0 0.18 0.18 0.18 92 1005.1
20260507040044 5 328 0.0 4.8 0.05 0.05 0.05 78 1006.2
20260507034441 8 303 0.0 0.0 0.00 0.00 0.00 68 1006.2
20260507032935 8 294 0.0 0.0 0.00 0.00 0.00 69 1005.8
20260507031435 7 304 0.0 0.0 0.00 0.00 0.00 66 1006.2
20260507025935 7 315 0.0 0.0 0.00 0.00 0.00 66 1006.5
20260507024435 8 291 0.0 0.0 0.00 0.00 0.00 65 1006.5
20260507022935 8 316 0.0 0.0 0.00 0.00 0.00 63 1006.7
20260507021435 7 306 0.0 0.0 0.00 0.00 0.00 63 1006.8
20260507015935 8 303 0.0 0.0 0.00 0.00 0.00 63 1006.5
20260507014435 8 305 0.0 0.0 0.00 0.00 0.00 62 1006.6